COSMOS 252 DEB, 3565

Orbit data source: Space-Track

COSMOS 252 DEB, 3565 is space debris in LEO originally from a launch on Fri, 01 Nov 1968 UTC launched from the Tyuratam Missile And Space Complex (TTMTR). Debris objects in space refer to the collection of defunct objects orbiting the Earth. Examples of debris include non-operational satellites, rocket bodies, and fragments generated from explosions, collisions, or faulty payload assembly.

Loading next visibility...
Identifier
3565, 1968-097R
Orbit
LEO
Country
Flag of CISCIS
Related business
Manufacturer
Unknown
Mission
Spacecraft
Bus & Motor
Unknown
Mass
Unknown
Launch date (UTC)
1968-11-01 (57 years ago)
Launch vehicle
Unknown
Launch site
Tyuratam Missile And Space Complex (TTMTR)
Object type
Payload
Rocket body
Debris
Shape & HBR
Unknown shape, 0.1 m
Radar Cross Section
Small (<0.1 m²)

Expand to show TLE details & history
Last TLE update: 22 hours ago

TLE from 22 hours ago
0 COSMOS 252 DEB
1 03565U 68097R   25287.70193593  .00012159  00000-0  20205-2 0  9999
2 03565  62.2842  26.9311 0431800 182.1702 177.7496 14.23606644808366
Epoch: 2025-10-14T16:50Z
TLE epoch observation values (Epoch: 2025-10-14T16:50:47.264Z)
Latitude
0.00002°
Longitude
110.7476°
Altitude
1,125.243 km
Speed
7.132 km/s
True Right ascension
01h 47m 43s
True Declination
0° 00' 00"
Sunlit
Object was in full shadow at epoch
Visualization orbit readout
Latitude
Unknown
Longitude
Unknown
Altitude
Unknown
Speed
Unknown
Apparent Right ascension
Unknown
Apparent Declination
Unknown
Sunlit
N/A
Visualization observer readout
Local Sidereal Time
09:36:42
Azimuth
Unknown
Elevation
Unknown
Doppler factor
Unknown
Orbital elements
Apogee altitude
1,122.582 km
Perigee altitude
501.633 km
Semi-major axis
7,190.245 km
Eccentricity
0.04318
Inclination
62.2842°
RAAN
26.9311°
Arg. of periapsis
182.1702°
True anomaly
177.93393°
Mean anomaly
177.7496°
Eccentric anomaly
177.84273°
Mean motion
3.55982 °/min
Orbital period
101.13 mins
BSTAR
0.0020205
Loading maneuver chart data...
Computing Atmospheric mass density...

Documentation

Showing up to 5 results
|